Volver al catálogo

STARLINK-36573

ActivoComunicacionesSSO
NORAD 67539·PAYLOAD·🇺🇸 United States

Lanzado Jan 22, 2026 desde Vandenberg Space Force Base

Loading…

Próximos Pases (próximas 24 horas)

TLE

ActualizadoSource: CelesTrak SupGP

Época: Sep 15, 2026, 03:19 UTC

1 67539C 26014H   26258.13868056  .00064323  00000+0  19961-2 0  2586
2 67539  97.2845 143.5724 0001921  99.6248 348.7291 15.33416186    17

Sigue STARLINK-36573 en tiempo real con AllMySat

Download on the App Store